TimeCST,TemperatureF,Dew PointF,Humidity,Sea Level PressureIn,VisibilityMPH,Wind Direction,Wind SpeedMPH,Gust SpeedMPH,PrecipitationIn,Events,Conditions,WindDirDegrees,DateUTC
12:15 AM,42.8,30.2,61,30.26,10.0,Calm,Calm,-,N/A,,Clear,0,2012-11-06 06:15:00
12:35 AM,41.0,30.2,65,30.25,10.0,Calm,Calm,-,N/A,,Clear,0,2012-11-06 06:35:00
12:55 AM,41.0,30.2,65,30.25,10.0,Calm,Calm,-,N/A,,Clear,0,2012-11-06 06:55:00
1:15 AM,41.0,28.4,61,30.25,10.0,Calm,Calm,-,N/A,,Clear,0,2012-11-06 07:15:00
1:35 AM,39.2,30.2,70,30.25,10.0,Calm,Calm,-,N/A,,Clear,0,2012-11-06 07:35:00
1:55 AM,39.2,30.2,70,30.25,10.0,Calm,Calm,-,N/A,,Clear,0,2012-11-06 07:55:00
2:15 AM,39.2,28.4,65,30.25,10.0,Calm,Calm,-,N/A,,Clear,0,2012-11-06 08:15:00
2:35 AM,35.6,28.4,75,30.25,10.0,Calm,Calm,-,N/A,,Clear,0,2012-11-06 08:35:00
2:55 AM,37.4,28.4,70,30.25,10.0,Calm,Calm,-,N/A,,Clear,0,2012-11-06 08:55:00
3:15 AM,35.6,28.4,75,30.25,10.0,Calm,Calm,-,N/A,,Clear,0,2012-11-06 09:15:00
3:35 AM,37.4,28.4,70,30.24,10.0,Calm,Calm,-,N/A,,Clear,0,2012-11-06 09:35:00
3:55 AM,35.6,28.4,75,30.23,10.0,Calm,Calm,-,N/A,,Clear,0,2012-11-06 09:55:00
4:15 AM,35.6,28.4,75,30.24,10.0,Calm,Calm,-,N/A,,Clear,0,2012-11-06 10:15:00
4:35 AM,37.4,28.4,70,30.24,10.0,Calm,Calm,-,N/A,,Clear,0,2012-11-06 10:35:00
4:55 AM,35.6,28.4,75,30.24,10.0,Calm,Calm,-,N/A,,Clear,0,2012-11-06 10:55:00
5:15 AM,35.6,28.4,75,30.24,10.0,Calm,Calm,-,N/A,,Clear,0,2012-11-06 11:15:00
5:35 AM,35.6,28.4,75,30.24,10.0,Calm,Calm,-,N/A,,Clear,0,2012-11-06 11:35:00
5:55 AM,37.4,28.4,70,30.24,10.0,Calm,Calm,-,N/A,,Clear,0,2012-11-06 11:55:00
6:15 AM,37.4,28.4,70,30.25,10.0,Calm,Calm,-,N/A,,Clear,0,2012-11-06 12:15:00
6:35 AM,35.6,28.4,75,30.25,10.0,Calm,Calm,-,N/A,,Clear,0,2012-11-06 12:35:00
6:55 AM,35.6,26.6,70,30.26,10.0,Calm,Calm,-,N/A,,Clear,0,2012-11-06 12:55:00
7:15 AM,37.4,26.6,65,30.26,10.0,Calm,Calm,-,N/A,,Clear,0,2012-11-06 13:15:00
7:35 AM,37.4,28.4,70,30.27,10.0,Calm,Calm,-,N/A,,Clear,0,2012-11-06 13:35:00
7:55 AM,39.2,30.2,70,30.28,10.0,Calm,Calm,-,N/A,,Clear,0,2012-11-06 13:55:00
8:15 AM,44.6,32.0,61,30.28,10.0,Calm,Calm,-,N/A,,Clear,0,2012-11-06 14:15:00
8:35 AM,51.8,33.8,50,30.29,10.0,Calm,Calm,-,N/A,,Clear,0,2012-11-06 14:35:00
8:55 AM,55.4,33.8,44,30.30,10.0,Calm,Calm,-,N/A,,Clear,0,2012-11-06 14:55:00
9:15 AM,57.2,33.8,41,30.30,10.0,Calm,Calm,-,N/A,,Clear,0,2012-11-06 15:15:00
9:35 AM,60.8,33.8,36,30.30,10.0,Calm,Calm,-,N/A,,Clear,0,2012-11-06 15:35:00
9:55 AM,62.6,35.6,37,30.31,10.0,Calm,Calm,-,N/A,,Clear,0,2012-11-06 15:55:00
10:15 AM,64.4,33.8,32,30.31,10.0,Calm,Calm,-,N/A,,Clear,0,2012-11-06 16:15:00
10:35 AM,66.2,33.8,30,30.32,10.0,Calm,Calm,-,N/A,,Clear,0,2012-11-06 16:35:00
10:55 AM,68.0,33.8,28,30.32,10.0,Calm,Calm,-,N/A,,Clear,0,2012-11-06 16:55:00
11:15 AM,69.8,33.8,27,30.31,10.0,Calm,Calm,-,N/A,,Clear,0,2012-11-06 17:15:00
11:35 AM,71.6,33.8,25,30.30,10.0,Calm,Calm,-,N/A,,Clear,0,2012-11-06 17:35:00
11:55 AM,73.4,32.0,22,30.30,10.0,SSW,5.8,-,N/A,,Clear,200,2012-11-06 17:55:00
12:15 PM,73.4,30.2,20,30.29,10.0,Calm,Calm,-,N/A,,Clear,0,2012-11-06 18:15:00
12:35 PM,75.2,28.4,18,30.28,10.0,Calm,Calm,-,N/A,,Clear,0,2012-11-06 18:35:00
12:55 PM,75.2,28.4,18,30.26,10.0,Calm,Calm,-,N/A,,Clear,0,2012-11-06 18:55:00
1:15 PM,75.2,26.6,17,30.25,10.0,West,12.7,-,N/A,,Clear,270,2012-11-06 19:15:00
1:35 PM,77.0,26.6,16,30.24,10.0,West,3.5,-,N/A,,Clear,260,2012-11-06 19:35:00
1:55 PM,78.8,24.8,14,30.23,10.0,West,11.5,-,N/A,,Clear,280,2012-11-06 19:55:00
2:15 PM,77.0,24.8,14,30.22,10.0,WSW,8.1,-,N/A,,Clear,240,2012-11-06 20:15:00
2:35 PM,77.0,24.8,14,30.22,10.0,West,11.5,16.1,N/A,,Clear,260,2012-11-06 20:35:00
2:55 PM,78.8,24.8,14,30.21,10.0,West,11.5,-,N/A,,Clear,270,2012-11-06 20:55:00
3:15 PM,78.8,24.8,14,30.21,10.0,WNW,11.5,-,N/A,,Clear,300,2012-11-06 21:15:00
3:35 PM,78.8,24.8,14,30.21,10.0,Calm,Calm,-,N/A,,Clear,0,2012-11-06 21:35:00
3:55 PM,77.0,24.8,14,30.21,10.0,WSW,6.9,-,N/A,,Clear,240,2012-11-06 21:55:00
4:15 PM,78.8,24.8,14,30.21,10.0,WNW,11.5,-,N/A,,Clear,290,2012-11-06 22:15:00
4:35 PM,77.0,24.8,14,30.21,10.0,WSW,8.1,-,N/A,,Clear,250,2012-11-06 22:35:00
4:55 PM,75.2,24.8,15,30.21,10.0,West,6.9,-,N/A,,Clear,260,2012-11-06 22:55:00
5:15 PM,75.2,23.0,14,30.21,10.0,West,9.2,-,N/A,,Clear,260,2012-11-06 23:15:00
5:35 PM,73.4,23.0,15,30.21,10.0,West,8.1,-,N/A,,Clear,280,2012-11-06 23:35:00
5:55 PM,71.6,23.0,16,30.22,10.0,WNW,6.9,-,N/A,,Clear,290,2012-11-06 23:55:00
6:15 PM,66.2,23.0,19,30.22,10.0,West,4.6,-,N/A,,Clear,280,2012-11-07 00:15:00
6:35 PM,62.6,23.0,22,30.23,10.0,NE,9.2,-,N/A,,Clear,50,2012-11-07 00:35:00
6:55 PM,62.6,24.8,24,30.23,10.0,NE,8.1,-,N/A,,Clear,50,2012-11-07 00:55:00
7:15 PM,60.8,26.6,27,30.24,10.0,NE,8.1,-,N/A,,Clear,50,2012-11-07 01:15:00
7:35 PM,57.2,26.6,31,30.24,10.0,NE,5.8,-,N/A,,Clear,40,2012-11-07 01:35:00
7:55 PM,53.6,26.6,35,30.25,10.0,NNE,4.6,-,N/A,,Clear,30,2012-11-07 01:55:00
8:15 PM,53.6,26.6,35,30.25,10.0,Calm,Calm,-,N/A,,Clear,0,2012-11-07 02:15:00
8:35 PM,50.0,24.8,37,30.25,10.0,Calm,Calm,-,N/A,,Clear,0,2012-11-07 02:35:00
8:55 PM,50.0,26.6,40,30.25,10.0,Calm,Calm,-,N/A,,Clear,0,2012-11-07 02:55:00
9:15 PM,50.0,26.6,40,30.25,10.0,Calm,Calm,-,N/A,,Clear,0,2012-11-07 03:15:00
9:35 PM,48.2,26.6,43,30.26,10.0,Calm,Calm,-,N/A,,Clear,0,2012-11-07 03:35:00
9:55 PM,46.4,26.6,46,30.27,10.0,Calm,Calm,-,N/A,,Clear,0,2012-11-07 03:55:00
10:15 PM,46.4,26.6,46,30.27,10.0,Calm,Calm,-,N/A,,Clear,0,2012-11-07 04:15:00
10:35 PM,46.4,26.6,46,30.27,10.0,Calm,Calm,-,N/A,,Clear,0,2012-11-07 04:35:00
10:55 PM,42.8,26.6,53,30.27,10.0,Calm,Calm,-,N/A,,Clear,0,2012-11-07 04:55:00
11:15 PM,42.8,26.6,53,30.27,10.0,Calm,Calm,-,N/A,,Clear,0,2012-11-07 05:15:00
11:35 PM,42.8,28.4,57,30.27,10.0,Calm,Calm,-,N/A,,Clear,0,2012-11-07 05:35:00
11:55 PM,44.6,28.4,53,30.27,10.0,Calm,Calm,-,N/A,,Clear,0,2012-11-07 05:55:00